Regional Weather Roundup
Issued by NWS Sterling, VA

Home | Current Version | Previous Version | Graphics & Text | Print | Product List | Glossary On
Versions: 1 2 3 4 5 6 7 8 9 10 11 12 13 14 15 16 17 18 19 20 21 22 23 24 25 26 27 28 29 30 31 32 33 34 35 36 37 38 39 40 41 42 43 44 45 46 47 48 49 50
000
ASUS41 KLWX 300610
RWRLWX

REGIONAL WEATHER ROUNDUP
NATIONAL WEATHER SERVICE BALTIMORE MD/WASHINGTON DC
200 AM EDT SAT AUG 30 2014

Note: "FAIR" indicates few or no clouds below 12,000 feet
with no significant weather and/or obstructions to visibility.
 TC=TEMPERATURE CELSIUS

 * =Non NWS site. Station does not report precipitation (e.g. rain,
    snow, etc.), thunder, or fog.

DCZ001-MDZ009-015-VAZ040>042-051-053>054-300700-
WASHINGTON METRO
  /KDAA//-FT BELVOIR

CITY           SKY/WX    TMP DP  RH WIND       PRES   REMARKS
WASHINGTON NAT MOCLDY    71  61  70 S6        30.23S
DULLES         CLOUDY    67  58  72 CALM      30.22F
ANDREWS AFB    FAIR      64  61  92 SE6       30.22F
QUANTICO       CLOUDY    71  63  75 S13       30.22F
COLLEGE PARK*  CLOUDY    70  63  78 CALM      30.22S
LEESBURG*      CLOUDY    66  61  82 CALM      30.23F
MANASSAS*      CLOUDY    68  63  83 CALM      30.22F
GAITHERSBURG*  CLOUDY    64  59  82 SE8       30.26F

$$

MDZ006>007-011-014-300700-
BALTIMORE METRO

CITY           SKY/WX    TMP DP  RH WIND       PRES   REMARKS
BWI AIRPORT    MOCLDY    68  61  78 CALM      30.23S
MD SCIENCE CTR   N/A     71  62  73 MISG      30.24R
MARTIN STATE   CLOUDY    70  64  83 SE8       30.25S
ANNAPOLIS      CLOUDY    71  63  75 SE9       30.23R
FORT MEADE*    CLOUDY    61  59  94 CALM      30.25S

$$

MDZ012-015-019>023-300700-
MARYLAND EASTERN SHORE

CITY           SKY/WX    TMP DP  RH WIND       PRES   REMARKS
OCEAN CITY     FAIR      70  61  73 SE3       30.22F
SALISBURY      FAIR      61  56  83 CALM      30.23F
BAY BRIDGE AP*   N/A     70  63  78 SE6       30.23S
CAMBRIDGE*     FAIR      63  59  88 CALM      30.23S
EASTON*        CLOUDY    65  65 100 CALM      30.27S

$$

MDZ017>025-300700-
SOUTHERN MARYLAND

CITY           SKY/WX    TMP DP  RH WIND       PRES   REMARKS
PATUXENT RIVER CLOUDY    71  59  65 SE7       30.22F
ST INIGOES     MOCLDY    63  58  83 CALM      30.21F
LEONARDTOWN*   MOCLDY    64  59  82 CALM      30.23F

$$

MDZ003>005-300700-
NORTH CENTRAL MARYLAND

CITY           SKY/WX    TMP DP  RH WIND       PRES   REMARKS
FREDERICK*     CLOUDY    63  61  94 CALM      30.25S
HAGERSTOWN APT CLOUDY    64  55  72 W3        30.22S
WESTMINSTER*   MOCLDY    64  59  82 SE8       30.24R

$$

MDZ501>502-300700-
WESTERN MARYLAND

CITY           SKY/WX    TMP DP  RH WIND       PRES   REMARKS
OAKLAND*       FAIR      59 N/A N/A SE10      30.24F
CUMBERLAND*    FAIR      63  57  82 N3        30.23S

$$

VAZ025>031-300700-
SHENANDOAH VALLEY

CITY           SKY/WX    TMP DP  RH WIND       PRES   REMARKS
WINCHESTER*    CLOUDY    70  55  60 CALM      30.21S
STAUNTON*      CLOUDY    70  62  77 SW5       30.23F

$$

WVZ021-048>050-054>055-300700-
EASTERN WEST VIRGINIA PANHANDLE

CITY           SKY/WX    TMP DP  RH WIND       PRES   REMARKS
MARTINSBURG    CLOUDY    66  57  72 E3        30.22S
PETERSBURG*    NOT AVBL

$$

VAZ036>039-050-300700-
CENTRAL FOOTHILLS

CITY           SKY/WX    TMP DP  RH WIND       PRES   REMARKS
CHARLOTTESVILL CLOUDY    68  62  81 N5        30.21F
ORANGE*        MOCLDY    64  61  88 CALM      30.23S

$$

VAZ055>057-300700-
NORTH AND CENTRAL PIEDMONT

CITY           SKY/WX    TMP DP  RH WIND       PRES   REMARKS
FREDERICKSBRG* FAIR      66  61  85 CALM      30.20F
STAFFORD*      CLOUDY    62  62 100 CALM      30.25F

$$

NCZ024-NYZ072-PAZ021-071-VAZ022-071-300700-
OTHER REGIONAL OBSERVATIONS

CITY           SKY/WX    TMP DP  RH WIND       PRES   REMARKS
NEW YORK CITY  FAIR      66  54  65 CALM      30.29S
PHILADELPHIA   FAIR      65  58  78 CALM      30.25S
PITTSBURGH     FAIR      63  57  81 CALM      30.12S
ROANOKE        CLOUDY    73  68  84 SE7       30.24R
RICHMOND       MOCLDY    69  63  81 NE5       30.21S
RALEIGH        MOCLDY    74  69  85 E7        30.19R

$$

ANZ530>537-300700-
MARINE OBSERVATIONS

STATION/POSITION TIME  TEMP    WIND        PRES
                       AIR SEA DIR/SP/G
                 (UTC) (F)     (DEG/KT/KT) (MB)
THOMAS PT LIGHT  0600   70 77  150/ 12/ 13 1024.4S
BALT KEY BRIDGE  0600   77     140/  9/ 10 1023.4R
COVE POINT       0600   72     140/ 11/ 14 1023.4S
LEWISETTA        0600   72 78  150/  4/  5 1022.8S
SOLOMONS ISLAND  0600      79                N/A
PINEY POINT      0600          140/  8/ 10   N/A

$$




USA.gov is the U.S. government's official web portal to all federal, state and local government web resources and services.